Location: Newark
(41.0400°S, 62.7845°W)
Time: 23:48:48
(UTC+00:00)

Vanguard 2 - Pass Details

Date: 08 December 2021
Orbit: 554 x 2935 km, 32.9° (Epoch: 27 January)

Event Time Altitude Azimuth Distance (km) Brightness Sun altitude
Rises 01:31:59 0° 328° (NNW) 6,046 11.9 -17.2°
Reaches altitude 10° 01:36:13 10° 336° (NNW) 5,296 11.5 -17.7°
Maximum altitude 01:50:20 35° 34° (NE) 4,024 10.6 -19.2°
Drops below altitude 10° 02:05:02 10° 91° (E) 5,547 11.6 -20.6°
Sets 02:09:32 0° 99° (E) 6,359 12.0 -21.0°
